When you browse on this site, cookies collect data to enhance your experience and personalize the content and advertising you see.
Visit our Privacy Policy to learn more. By continuing to use the site, you agree to this use of cookies and data.
  • In Austria
  • List of Countries
  • For 7 days
  • Water Temperature
  • Weather Map
  • News
  • Weather Widgets
  • user-avatar
    Login

    Hourly Weather Mosquera

    Today, 14 November, Thursday

    Time Temperature Precipitation Wind Pressure Humidity
    00:00 +11°C° 0 mm 0 mps 560 mmHg 92%
    01:00 +12°C° 0 mm 1 mps 560 mmHg 92%
    02:00 +11°C° 0 mm 1 mps 560 mmHg 92%
    03:00 +10°C° 0 mm 0 mps 560 mmHg 92%
    04:00 +10°C° 0 mm 0 mps 560 mmHg 92%
    05:00 +10°C° 0 mm 0 mps 560 mmHg 90%
    06:00 +11°C° 0 mm 0 mps 561 mmHg 88%
    07:00 +13°C° 0 mm 1 mps 562 mmHg 87%
    08:00 +15°C° 0.1 mm 1 mps 563 mmHg 81%
    09:00 +16°C° 0.1 mm 1 mps 564 mmHg 76%
    10:00 +18°C° 0.1 mm 2 mps 565 mmHg 70%
    11:00 +18°C° 0.9 mm 2 mps 564 mmHg 75%
    12:00 +17°C° 0.9 mm 2 mps 563 mmHg 80%
    13:00 +17°C° 0.9 mm 2 mps 562 mmHg 84%
    14:00 +18°C° 1.5 mm 1 mps 561 mmHg 86%
    15:00 +16°C° 1.5 mm 1 mps 561 mmHg 88%
    16:00 +16°C° 1.5 mm 1 mps 561 mmHg 90%
    17:00 +15°C° 2.1 mm 1 mps 560 mmHg 91%
    18:00 +14°C° 2.1 mm 1 mps 560 mmHg 92%
    19:00 +13°C° 2.1 mm 1 mps 560 mmHg 93%
    20:00 +13°C° 0.8 mm 1 mps 561 mmHg 92%
    21:00 +13°C° 0.8 mm 1 mps 561 mmHg 92%
    22:00 +13°C° 0.8 mm 1 mps 562 mmHg 91%
    23:00 +13°C° 0.3 mm 1 mps 561 mmHg 90%

    Tomorrow, 15 November, Friday

    Time Temperature Precipitation Wind Pressure Humidity
    00:00 +13°C° 0.3 mm 1 mps 561 mmHg 90%
    01:00 +12°C° 0.3 mm 1 mps 560 mmHg 90%
    02:00 +12°C° 0.1 mm 1 mps 560 mmHg 91%
    03:00 +12°C° 0.1 mm 1 mps 560 mmHg 92%
    04:00 +12°C° 0.1 mm 1 mps 560 mmHg 92%
    05:00 +11°C° 0.1 mm 0 mps 561 mmHg 91%
    06:00 +12°C° 0.1 mm 0 mps 561 mmHg 90%
    07:00 +12°C° 0.1 mm 0 mps 562 mmHg 89%
    08:00 +13°C° 0.7 mm 0 mps 562 mmHg 89%
    09:00 +14°C° 0.7 mm 1 mps 563 mmHg 89%
    10:00 +15°C° 0.7 mm 1 mps 563 mmHg 89%
    11:00 +16°C° 0.5 mm 1 mps 562 mmHg 85%
    12:00 +18°C° 0.5 mm 1 mps 562 mmHg 80%
    13:00 +19°C° 0.5 mm 1 mps 562 mmHg 75%
    14:00 +18°C° 0.8 mm 1 mps 561 mmHg 79%
    15:00 +17°C° 0.8 mm 2 mps 561 mmHg 83%
    16:00 +16°C° 0.8 mm 2 mps 560 mmHg 87%
    17:00 +15°C° 0.8 mm 1 mps 560 mmHg 89%
    18:00 +14°C° 0.8 mm 1 mps 560 mmHg 91%
    19:00 +12°C° 0.8 mm 0 mps 560 mmHg 93%
    20:00 +12°C° 0.3 mm 0 mps 560 mmHg 92%
    21:00 +13°C° 0.3 mm 1 mps 560 mmHg 91%
    22:00 +13°C° 0.3 mm 1 mps 561 mmHg 90%
    23:00 +12°C° 0.2 mm 1 mps 560 mmHg 90%

    Day after tomorrow, 16 November, Saturday

    Time Temperature Precipitation Wind Pressure Humidity
    00:00 +12°C° 0.2 mm 1 mps 560 mmHg 91%
    01:00 +12°C° 0.2 mm 1 mps 559 mmHg 92%
    02:00 +12°C° 1 mm 1 mps 559 mmHg 93%
    03:00 +11°C° 1 mm 0 mps 559 mmHg 95%
    04:00 +11°C° 1 mm 0 mps 559 mmHg 96%
    05:00 +11°C° 0.6 mm 0 mps 560 mmHg 96%
    06:00 +11°C° 0.6 mm 0 mps 560 mmHg 95%
    07:00 +11°C° 0.6 mm 0 mps 560 mmHg 95%
    08:00 +12°C° 0.1 mm 0 mps 561 mmHg 92%
    09:00 +14°C° 0.1 mm 1 mps 561 mmHg 88%
    10:00 +14°C° 0.1 mm 1 mps 562 mmHg 85%
    11:00 +15°C° 0.4 mm 1 mps 561 mmHg 83%
    12:00 +16°C° 0.4 mm 2 mps 561 mmHg 80%
    13:00 +18°C° 0.4 mm 2 mps 561 mmHg 78%
    14:00 +17°C° 0.8 mm 2 mps 560 mmHg 81%
    15:00 +16°C° 0.8 mm 2 mps 560 mmHg 83%
    16:00 +16°C° 0.8 mm 1 mps 559 mmHg 86%
    17:00 +15°C° 0.2 mm 1 mps 559 mmHg 88%
    18:00 +13°C° 0.2 mm 1 mps 559 mmHg 90%
    19:00 +12°C° 0.2 mm 1 mps 559 mmHg 93%
    20:00 +12°C° 0.2 mm 1 mps 559 mmHg 92%
    21:00 +12°C° 0.2 mm 1 mps 559 mmHg 91%
    22:00 +11°C° 0.2 mm 1 mps 559 mmHg 91%
    23:00 +11°C° 0 mm 1 mps 559 mmHg 90%

    17 November, Sunday

    Time Temperature Precipitation Wind Pressure Humidity
    00:00 +11°C° 0 mm 1 mps 558 mmHg 90%
    01:00 +10°C° 0 mm 1 mps 558 mmHg 89%
    02:00 +10°C° 0 mm 1 mps 558 mmHg 89%
    03:00 +10°C° 0 mm 1 mps 558 mmHg 89%
    04:00 +10°C° 0 mm 1 mps 558 mmHg 89%
    05:00 +11°C° 0 mm 1 mps 558 mmHg 87%
    06:00 +12°C° 0 mm 1 mps 559 mmHg 86%
    07:00 +12°C° 0 mm 1 mps 560 mmHg 84%
    08:00 +14°C° 0.1 mm 1 mps 561 mmHg 80%
    09:00 +16°C° 0.1 mm 1 mps 562 mmHg 76%
    10:00 +18°C° 0.1 mm 1 mps 562 mmHg 72%
    11:00 +17°C° 0.5 mm 2 mps 562 mmHg 73%
    12:00 +18°C° 0.5 mm 2 mps 561 mmHg 75%
    13:00 +18°C° 0.5 mm 2 mps 561 mmHg 77%
    14:00 +17°C° 0.8 mm 2 mps 560 mmHg 80%
    15:00 +17°C° 0.8 mm 2 mps 560 mmHg 82%
    16:00 +16°C° 0.8 mm 1 mps 559 mmHg 85%
    17:00 +15°C° 0.5 mm 1 mps 559 mmHg 87%
    18:00 +14°C° 0.5 mm 1 mps 559 mmHg 90%
    19:00 +12°C° 0.5 mm 1 mps 559 mmHg 92%
    20:00 +12°C° 0.2 mm 1 mps 559 mmHg 92%
    21:00 +12°C° 0.2 mm 1 mps 559 mmHg 91%
    22:00 +11°C° 0.2 mm 1 mps 559 mmHg 91%
    23:00 +11°C° 0.1 mm 1 mps 559 mmHg 91%

    18 November, Monday

    Time Temperature Precipitation Wind Pressure Humidity
    00:00 +11°C° 0.1 mm 1 mps 559 mmHg 91%
    01:00 +11°C° 0.1 mm 1 mps 558 mmHg 91%
    02:00 +11°C° 0 mm 1 mps 558 mmHg 91%
    03:00 +11°C° 0 mm 1 mps 558 mmHg 91%
    04:00 +11°C° 0 mm 1 mps 558 mmHg 91%
    05:00 +11°C° 0 mm 1 mps 559 mmHg 91%
    06:00 +12°C° 0 mm 1 mps 560 mmHg 91%
    07:00 +11°C° 0 mm 0 mps 560 mmHg 90%
    08:00 +14°C° 0.2 mm 1 mps 561 mmHg 86%
    09:00 +16°C° 0.2 mm 1 mps 562 mmHg 82%
    10:00 +18°C° 0.2 mm 1 mps 563 mmHg 78%
    11:00 +18°C° 1.1 mm 1 mps 562 mmHg 81%
    12:00 +18°C° 1.1 mm 1 mps 561 mmHg 84%
    13:00 +16°C° 1.1 mm 2 mps 561 mmHg 87%
    14:00 +16°C° 0.8 mm 1 mps 560 mmHg 88%
    15:00 +16°C° 0.8 mm 1 mps 560 mmHg 88%
    16:00 +16°C° 0.8 mm 1 mps 559 mmHg 89%
    17:00 +15°C° 0.7 mm 1 mps 559 mmHg 90%
    18:00 +14°C° 0.7 mm 1 mps 559 mmHg 92%
    19:00 +12°C° 0.7 mm 0 mps 559 mmHg 93%
    20:00 +11°C° 0.1 mm 0 mps 559 mmHg 93%
    21:00 +12°C° 0.1 mm 1 mps 559 mmHg 92%
    22:00 +11°C° 0.1 mm 1 mps 559 mmHg 92%
    23:00 +11°C° 0.1 mm 1 mps 559 mmHg 92%

    19 November, Tuesday

    Time Temperature Precipitation Wind Pressure Humidity
    00:00 +11°C° 0.1 mm 1 mps 559 mmHg 92%
    01:00 +11°C° 0.1 mm 1 mps 559 mmHg 92%
    02:00 +10°C° 0 mm 1 mps 558 mmHg 92%
    03:00 +10°C° 0 mm 1 mps 558 mmHg 92%
    04:00 +10°C° 0 mm 1 mps 558 mmHg 92%
    05:00 +11°C° 0 mm 1 mps 559 mmHg 90%
    06:00 +11°C° 0 mm 0 mps 560 mmHg 88%
    07:00 +11°C° 0 mm 0 mps 561 mmHg 86%
    08:00 +14°C° 0 mm 1 mps 562 mmHg 81%
    09:00 +16°C° 0 mm 1 mps 563 mmHg 75%
    10:00 +18°C° 0 mm 2 mps 564 mmHg 70%
    11:00 +17°C° 0.7 mm 2 mps 563 mmHg 74%
    12:00 +17°C° 0.7 mm 2 mps 562 mmHg 79%
    13:00 +17°C° 0.7 mm 2 mps 561 mmHg 83%
    14:00 +16°C° 0.9 mm 1 mps 561 mmHg 85%
    15:00 +16°C° 0.9 mm 1 mps 560 mmHg 87%
    16:00 +16°C° 0.9 mm 1 mps 560 mmHg 89%
    17:00 +15°C° 0.7 mm 1 mps 560 mmHg 90%
    18:00 +14°C° 0.7 mm 1 mps 560 mmHg 92%
    19:00 +12°C° 0.7 mm 0 mps 560 mmHg 93%
    20:00 +13°C° 0.5 mm 1 mps 560 mmHg 93%
    21:00 +12°C° 0.5 mm 1 mps 560 mmHg 93%
    22:00 +12°C° 0.5 mm 1 mps 560 mmHg 93%
    23:00 +11°C° 0.1 mm 1 mps 560 mmHg 92%
    Show more